星链-3249 (STARLINK-3249 )

导读

STARLINK-3249是美国SpaceX星链互联网卫星星座的成员之一,于2021年12月2日发射入轨,归属美国管辖。作为星链低轨星座的组成部分,它承担着为全球提供高速低延迟宽带互联网接入的任务,重点覆盖偏远地区与基础通信设施匮乏区域,是Starlink低轨卫星组网进程中的重要节点。

基本信息
目录编号:
49730
目录名称:
STARLINK-3249
国际标识:
2021-115G
轨道中心:
EARTH
卫星名称:
星链-3249
卫星全名:
星链-3249 (STARLINK-3249 )
卫星状态:
在轨 (已飞行1658 天)
发射日期:
2021-12-02 UTC
国别 :
美国 (US)
星等 :
--
轨道信息
数据来源 国际轨道数据 AOE轨道数据
星历时间 2026-06-17T08:33:33+0800
20小时前
查看轨道信息
2026-06-14T00:00:00+0800
4天前
查看轨道信息
半长轴 6917.911km 6917.902km
偏心率 0.0001378 0.0001667
轨道倾角 53.159° 53.160°
近地点辐角 92.514° 75.333°
升交点赤经 73.293° 88.383°
平近点角 267.601° 42.240°
近地点 538.82km 538.611km
远地点 540.728km 540.919km
周期 95.438分钟 95.438分钟
每日圈数 15.088302 15.08833
详细信息
固有亮度:
5
最大亮度:
2.5
卫星平台:
Starlink v1.5
覆盖范围:
全球
运营商:
太空探索技术公司
运营商所在国:
美国
制造商(研发单位):
太空探索技术公司
制造商所在国:
美国
使用方式:
暂无
卫星简介
星链(Starlink)计划是由太空探索技术公司(SpaceX)提出的一个巨型低轨卫星互联网星座项目,计划在2019年至2024年间在太空搭建由约1.2万颗卫星组成的“星链”网络,其中1584颗将部署在地球上空550千米处的近地轨道,并从2020年开始工作。该卫星仍在工作。
2D轨道图
3D轨道图
轨道高度分析图
轨道倾角分析图
轨道综合分析图
查看轨道综合分析图